Flag for Russia Weather past 2 weeks in Kazan, Russia

Now
41 °F

Clear.


Feels Like: 31 °F
Forecast: 32 / 42 °F
Wind: 24 mph from Northwest

Location: Kazan'

Current Time: Oct 2, 2014 at 9:18:31 PM

Latest Report: Oct 2, 2014 at 9:00 PM


Visibility: 10 mi

Pressure: 29.89 "Hg

Humidity: 57%

Dew point: 27 °F

Location of KazanLocation

Historic Weather in Kazan — Graph

°F

Kazan temperature yesterday

Maximum temperature yesterday: 46 °F (at 12:00 AM)
Minimum temperature yesterday: 39 °F (at 10:30 PM)
Average temperature yesterday: 43 °F

Past Weeks' High & Low Weather Summary

 TemperatureHumidityPressure
High72 °F (Sep 25, 2:30 PM)100% (Sep 22, 4:00 AM)30.36 "Hg (Sep 22, 4:00 AM)
Low34 °F (Oct 2, 9:30 AM)29% (Sep 24, 1:00 PM)29.42 "Hg (Oct 1, 1:30 AM)
Average51 °F74%29.97 "Hg
* Reported Sep 17 8:00 PM — Oct 2 8:00 PM, Kazan, Weather by CustomWeather, © 2014

Note: Actual official high and low records may vary slightly from our data, if they occured in-between our weather recording intervals... More about our weather records

Advertising

Kazan weather history for previous 24 hours

 ConditionsComfort  
Time TempWeatherWind HumidityBarometerVisibility
8:00 PM
Oct 2
41 °FClear.17 mph61%29.89 "Hg10 mi
7:30 PM41 °FClear.10 mph66%29.89 "Hg10 mi
7:00 PM39 °FSunny.10 mph70%29.89 "Hg10 mi
6:30 PM39 °FSunny.10 mph70%29.89 "Hg10 mi
6:00 PM41 °FPartly sunny.13 mph66%29.89 "HgN/A
5:30 PM41 °FPartly sunny.20 mph66%29.89 "HgN/A
5:00 PM39 °FPartly sunny.20 mph70%29.89 "HgN/A
4:30 PM39 °FPartly sunny.20 mph70%29.89 "HgN/A
4:00 PM39 °FPartly sunny.26 mph70%29.86 "HgN/A
3:30 PM39 °FPartly sunny.22 mph75%29.86 "HgN/A
3:00 PM39 °FPartly sunny.22 mph75%29.86 "HgN/A
2:30 PM39 °FPartly sunny.22 mph75%29.86 "HgN/A
2:00 PM39 °FPartly sunny.20 mph75%29.86 "HgN/A
1:30 PM39 °FMostly cloudy.20 mph75%29.83 "HgN/A
1:00 PM37 °FMostly cloudy.22 mph87%29.83 "HgN/A
12:30 PM37 °FMostly cloudy.20 mph87%29.83 "HgN/A
12:00 PM37 °FMostly cloudy.22 mph87%29.83 "HgN/A
11:30 AM36 °FMostly cloudy.22 mph93%29.83 "HgN/A
11:00 AM36 °FMostly cloudy.22 mph93%29.83 "HgN/A
10:30 AM36 °FLight rain. Overcast.24 mph93%29.83 "HgN/A
10:00 AM36 °FLight rain. Overcast.20 mph93%29.83 "Hg3 mi
9:30 AM34 °FLight rain. Low clouds.20 mph100%29.83 "Hg2 mi
9:00 AM36 °FLight rain. Overcast.20 mph93%29.80 "Hg3 mi
8:30 AM36 °FOvercast.20 mph93%29.80 "HgN/A
8:00 AM36 °FOvercast.20 mph93%29.80 "HgN/A
7:30 AM36 °FLight rain. Overcast.20 mph93%29.80 "HgN/A
7:00 AM36 °FLight rain. Overcast.22 mph93%29.77 "Hg3 mi
6:30 AM36 °FLight rain. Overcast.22 mph93%29.77 "HgN/A
6:00 AM36 °FLight rain. Overcast.20 mph93%29.77 "HgN/A
5:30 AM37 °FOvercast.24 mph81%29.77 "HgN/A
5:00 AM37 °FOvercast.22 mph81%29.77 "HgN/A
4:30 AM37 °FOvercast.22 mph81%29.77 "HgN/A
4:00 AM37 °FOvercast.20 mph81%29.77 "HgN/A
3:30 AM39 °FOvercast.22 mph75%29.77 "HgN/A
3:00 AM39 °FOvercast.24 mph81%29.74 "HgN/A
2:30 AM39 °FOvercast.20 mph81%29.74 "HgN/A
2:00 AM39 °FOvercast.20 mph81%29.74 "HgN/A
1:30 AM39 °FOvercast.20 mph81%29.74 "HgN/A
1:00 AM39 °FOvercast.20 mph81%29.74 "HgN/A
12:30 AM39 °FOvercast.20 mph87%29.74 "HgN/A
12:00 AM39 °FOvercast.20 mph81%29.74 "HgN/A
11:30 PM
Oct 1
39 °FOvercast.22 mph81%29.74 "HgN/A
11:00 PM39 °FOvercast.20 mph81%29.74 "HgN/A
10:30 PM39 °FOvercast.22 mph87%29.74 "HgN/A
10:00 PM41 °FOvercast.22 mph81%29.74 "HgN/A
9:30 PM41 °FOvercast.22 mph81%29.74 "HgN/A
9:00 PM41 °FLight rain. Overcast.22 mph81%29.71 "HgN/A
Weather by CustomWeather, © 2014

See weather overviewHow to use our weather pages